STARLINK-31747 (59564 NORAD) Tracking and Keplerian Element Data

This shows tracking and keplerian element data for the satellite.

Feedback or suggestion? Click here.




ElementValue
Catalog59564
NameSTARLINK-31747
Epoch Orbit828
Epoch Day160.07694345
Epoch Year2024
RAAN54.8397
Inclination43.0008
Eccentricity0.0001541
Argument of Perigee273.5966
Mean Anonmoly86.4714
Mean Motion15.406642
Decay Rate0.00023261
L11 59564U 24076A 24160.07694345 .00023261 00000+0 56307-3 0 9996
L22 59564 43.0008 54.8397 0001541 273.5966 86.4714 15.40664200 8287



Live tracking and technical data element details for STARLINK-31747 (NORAD 59564). STARLINK-31747 can be tracked NOW for your location showing map with azimuth and elevation plus other details from your city location.







IsCatalogInMostPopularTable: catalog: 59564, numindb: 15
Update: records affected: 1



GetName: 59564 STARLINK-31747

Hit Count: updated at: Fri, 14 Jun 2024 18:55:11 GMT